Time,TemperatureF,DewpointF,PressureIn,WindDirection,WindDirectionDegrees,WindSpeedMPH,WindSpeedGustMPH,Humidity,HourlyPrecipIn,Conditions,Clouds,dailyrainin,SoftwareType,DateUTC
2013-01-09 00:00:00,38.0,36.0,-100.00,ESE,111,3.0,-999.0,90,0.00,,,-99.99,,2013-01-09 08:00:00,
2013-01-09 00:22:00,38.0,36.0,-100.00,ESE,111,3.0,-999.0,90,0.00,,,-99.99,,2013-01-09 08:22:00,
2013-01-09 00:32:00,38.0,36.0,-100.00,ESE,111,3.0,-999.0,90,0.00,,,-99.99,,2013-01-09 08:32:00,
2013-01-09 00:43:00,38.0,36.0,-100.00,ESE,111,3.0,-999.0,90,0.00,,,-99.99,,2013-01-09 08:43:00,
2013-01-09 00:53:00,38.0,36.0,-100.00,ESE,111,3.0,-999.0,90,0.00,,,-99.99,,2013-01-09 08:53:00,
2013-01-09 01:00:00,37.0,35.0,-100.00,WNW,296,0.0,-999.0,91,0.00,,,-99.99,,2013-01-09 09:00:00,
2013-01-09 01:22:00,37.0,35.0,-100.00,WNW,296,0.0,-999.0,91,0.00,,,-99.99,,2013-01-09 09:22:00,
2013-01-09 01:32:00,37.0,35.0,-100.00,WNW,296,0.0,-999.0,91,0.00,,,-99.99,,2013-01-09 09:32:00,
2013-01-09 01:42:00,37.0,35.0,-100.00,WNW,296,0.0,-999.0,91,0.00,,,-99.99,,2013-01-09 09:42:00,
2013-01-09 01:53:00,37.0,35.0,-100.00,WNW,296,0.0,-999.0,91,0.00,,,-99.99,,2013-01-09 09:53:00,
2013-01-09 02:00:00,38.0,35.0,-100.00,East,82,3.0,-999.0,91,0.00,,,-99.99,,2013-01-09 10:00:00,
2013-01-09 02:22:00,38.0,35.0,-100.00,East,82,3.0,-999.0,91,0.00,,,-99.99,,2013-01-09 10:22:00,
2013-01-09 02:32:00,38.0,35.0,-100.00,East,82,3.0,-999.0,91,0.00,,,-99.99,,2013-01-09 10:32:00,
2013-01-09 02:42:00,38.0,35.0,-100.00,East,82,3.0,-999.0,91,0.00,,,-99.99,,2013-01-09 10:42:00,
2013-01-09 02:52:00,38.0,35.0,-100.00,East,82,3.0,-999.0,91,0.00,,,-99.99,,2013-01-09 10:52:00,
2013-01-09 03:00:00,37.0,35.0,-100.00,ESE,103,1.0,-999.0,90,0.00,,,-99.99,,2013-01-09 11:00:00,
2013-01-09 03:22:00,37.0,35.0,-100.00,ESE,103,1.0,-999.0,90,0.00,,,-99.99,,2013-01-09 11:22:00,
2013-01-09 03:33:00,37.0,35.0,-100.00,ESE,103,1.0,-999.0,90,0.00,,,-99.99,,2013-01-09 11:33:00,
2013-01-09 03:42:00,37.0,35.0,-100.00,ESE,103,1.0,-999.0,90,0.00,,,-99.99,,2013-01-09 11:42:00,
2013-01-09 03:53:00,37.0,35.0,-100.00,ESE,103,1.0,-999.0,90,0.00,,,-99.99,,2013-01-09 11:53:00,
2013-01-09 04:00:00,38.0,35.0,-100.00,ESE,123,1.0,-999.0,90,0.00,,,-99.99,,2013-01-09 12:00:00,
2013-01-09 04:23:00,38.0,35.0,-100.00,ESE,123,1.0,-999.0,90,0.00,,,-99.99,,2013-01-09 12:23:00,
2013-01-09 04:33:00,38.0,35.0,-100.00,ESE,123,1.0,-999.0,90,0.00,,,-99.99,,2013-01-09 12:33:00,
2013-01-09 04:43:00,38.0,35.0,-100.00,ESE,123,1.0,-999.0,90,0.00,,,-99.99,,2013-01-09 12:43:00,
2013-01-09 04:53:00,38.0,35.0,-100.00,ESE,123,1.0,-999.0,90,0.00,,,-99.99,,2013-01-09 12:53:00,
2013-01-09 05:00:00,35.0,33.0,-100.00,SE,128,3.0,-999.0,92,0.00,,,-99.99,,2013-01-09 13:00:00,
2013-01-09 05:23:00,35.0,33.0,-100.00,SE,128,3.0,-999.0,92,0.00,,,-99.99,,2013-01-09 13:23:00,
2013-01-09 05:33:00,35.0,33.0,-100.00,SE,128,3.0,-999.0,92,0.00,,,-99.99,,2013-01-09 13:33:00,
2013-01-09 05:43:00,35.0,33.0,-100.00,SE,128,3.0,-999.0,92,0.00,,,-99.99,,2013-01-09 13:43:00,
2013-01-09 05:52:00,35.0,33.0,-100.00,SE,128,3.0,-999.0,92,0.00,,,-99.99,,2013-01-09 13:52:00,
2013-01-09 06:00:00,35.0,32.0,-100.00,SE,137,3.0,-999.0,92,0.00,,,-99.99,,2013-01-09 14:00:00,
2013-01-09 06:23:00,35.0,32.0,-100.00,SE,137,3.0,-999.0,92,0.00,,,-99.99,,2013-01-09 14:23:00,
2013-01-09 06:33:00,35.0,32.0,-100.00,SE,137,3.0,-999.0,92,0.00,,,-99.99,,2013-01-09 14:33:00,
2013-01-09 06:43:00,35.0,32.0,-100.00,SE,137,3.0,-999.0,92,0.00,,,-99.99,,2013-01-09 14:43:00,
2013-01-09 06:53:00,35.0,32.0,-100.00,SE,137,3.0,-999.0,92,0.00,,,-99.99,,2013-01-09 14:53:00,
2013-01-09 07:00:00,35.0,33.0,-100.00,ESE,112,4.0,-999.0,93,0.00,,,-99.99,,2013-01-09 15:00:00,
2013-01-09 07:23:00,35.0,33.0,-100.00,ESE,112,4.0,-999.0,93,0.00,,,-99.99,,2013-01-09 15:23:00,
2013-01-09 07:33:00,35.0,33.0,-100.00,ESE,112,4.0,-999.0,93,0.00,,,-99.99,,2013-01-09 15:33:00,
2013-01-09 07:43:00,35.0,33.0,-100.00,ESE,112,4.0,-999.0,93,0.00,,,-99.99,,2013-01-09 15:43:00,
2013-01-09 07:53:00,35.0,33.0,-100.00,ESE,112,4.0,-999.0,93,0.00,,,-99.99,,2013-01-09 15:53:00,
2013-01-09 08:00:00,35.0,33.0,-100.00,SE,135,0.0,-999.0,92,0.00,,,-99.99,,2013-01-09 16:00:00,
2013-01-09 08:23:00,35.0,33.0,-100.00,SE,135,0.0,-999.0,92,0.00,,,-99.99,,2013-01-09 16:23:00,
2013-01-09 08:33:00,35.0,33.0,-100.00,SE,135,0.0,-999.0,92,0.00,,,-99.99,,2013-01-09 16:33:00,
2013-01-09 08:43:00,35.0,33.0,-100.00,SE,135,0.0,-999.0,92,0.00,,,-99.99,,2013-01-09 16:43:00,
2013-01-09 08:53:00,35.0,33.0,-100.00,SE,135,0.0,-999.0,92,0.00,,,-99.99,,2013-01-09 16:53:00,
2013-01-09 09:00:00,42.0,39.0,-100.00,NNE,13,2.0,-999.0,89,0.00,,,-99.99,,2013-01-09 17:00:00,
2013-01-09 09:23:00,42.0,39.0,-100.00,NNE,13,2.0,-999.0,89,0.00,,,-99.99,,2013-01-09 17:23:00,
2013-01-09 09:33:00,42.0,39.0,-100.00,NNE,13,2.0,-999.0,89,0.00,,,-99.99,,2013-01-09 17:33:00,
2013-01-09 09:43:00,42.0,39.0,-100.00,NNE,13,2.0,-999.0,89,0.00,,,-99.99,,2013-01-09 17:43:00,
2013-01-09 09:53:00,42.0,39.0,-100.00,NNE,13,2.0,-999.0,89,0.00,,,-99.99,,2013-01-09 17:53:00,
2013-01-09 10:00:00,48.0,42.0,-100.00,WSW,255,5.0,-999.0,80,0.00,,,-99.99,,2013-01-09 18:00:00,
2013-01-09 10:24:00,48.0,42.0,-100.00,WSW,255,5.0,-999.0,80,0.00,,,-99.99,,2013-01-09 18:24:00,
2013-01-09 10:33:00,48.0,42.0,-100.00,WSW,255,5.0,-999.0,80,0.00,,,-99.99,,2013-01-09 18:33:00,
2013-01-09 10:43:00,48.0,42.0,-100.00,WSW,255,5.0,-999.0,80,0.00,,,-99.99,,2013-01-09 18:43:00,
2013-01-09 10:53:00,48.0,42.0,-100.00,WSW,255,5.0,-999.0,80,0.00,,,-99.99,,2013-01-09 18:53:00,
2013-01-09 11:00:00,51.0,42.0,-100.00,SW,231,2.0,-999.0,72,0.00,,,-99.99,,2013-01-09 19:00:00,
2013-01-09 11:23:00,51.0,42.0,-100.00,SW,231,2.0,-999.0,72,0.00,,,-99.99,,2013-01-09 19:23:00,
2013-01-09 11:33:00,51.0,42.0,-100.00,SW,231,2.0,-999.0,72,0.00,,,-99.99,,2013-01-09 19:33:00,
2013-01-09 11:43:00,51.0,42.0,-100.00,SW,231,2.0,-999.0,72,0.00,,,-99.99,,2013-01-09 19:43:00,
2013-01-09 11:52:00,51.0,42.0,-100.00,SW,231,2.0,-999.0,72,0.00,,,-99.99,,2013-01-09 19:52:00,
2013-01-09 12:00:00,55.0,43.0,-100.00,SSE,154,2.0,-999.0,63,0.00,,,-99.99,,2013-01-09 20:00:00,
2013-01-09 12:23:00,55.0,43.0,-100.00,SSE,154,2.0,-999.0,63,0.00,,,-99.99,,2013-01-09 20:23:00,
2013-01-09 12:33:00,55.0,43.0,-100.00,SSE,154,2.0,-999.0,63,0.00,,,-99.99,,2013-01-09 20:33:00,
2013-01-09 12:43:00,55.0,43.0,-100.00,SSE,154,2.0,-999.0,63,0.00,,,-99.99,,2013-01-09 20:43:00,
2013-01-09 12:53:00,55.0,43.0,-100.00,SSE,154,2.0,-999.0,63,0.00,,,-99.99,,2013-01-09 20:53:00,
2013-01-09 13:00:00,57.0,45.0,-100.00,East,90,3.0,-999.0,64,0.00,,,-99.99,,2013-01-09 21:00:00,
2013-01-09 13:23:00,57.0,45.0,-100.00,East,90,3.0,-999.0,64,0.00,,,-99.99,,2013-01-09 21:23:00,
2013-01-09 13:33:00,57.0,45.0,-100.00,East,90,3.0,-999.0,64,0.00,,,-99.99,,2013-01-09 21:33:00,
2013-01-09 13:43:00,57.0,45.0,-100.00,East,90,3.0,-999.0,64,0.00,,,-99.99,,2013-01-09 21:43:00,
2013-01-09 13:53:00,57.0,45.0,-100.00,East,90,3.0,-999.0,64,0.00,,,-99.99,,2013-01-09 21:53:00,
2013-01-09 14:00:00,60.0,46.0,-100.00,West,276,5.0,-999.0,59,0.00,,,-99.99,,2013-01-09 22:00:00,
2013-01-09 14:23:00,60.0,46.0,-100.00,West,276,5.0,-999.0,59,0.00,,,-99.99,,2013-01-09 22:23:00,
2013-01-09 14:33:00,60.0,46.0,-100.00,West,276,5.0,-999.0,59,0.00,,,-99.99,,2013-01-09 22:33:00,
2013-01-09 14:43:00,60.0,46.0,-100.00,West,276,5.0,-999.0,59,0.00,,,-99.99,,2013-01-09 22:43:00,
2013-01-09 14:52:00,60.0,46.0,-100.00,West,276,5.0,-999.0,59,0.00,,,-99.99,,2013-01-09 22:52:00,
2013-01-09 15:00:00,62.0,48.0,-100.00,NW,315,5.0,-999.0,60,0.00,,,-99.99,,2013-01-09 23:00:00,
2013-01-09 15:23:00,62.0,48.0,-100.00,NW,315,5.0,-999.0,60,0.00,,,-99.99,,2013-01-09 23:23:00,
2013-01-09 15:33:00,62.0,48.0,-100.00,NW,315,5.0,-999.0,60,0.00,,,-99.99,,2013-01-09 23:33:00,
2013-01-09 15:43:00,62.0,48.0,-100.00,NW,315,5.0,-999.0,60,0.00,,,-99.99,,2013-01-09 23:43:00,
2013-01-09 15:53:00,62.0,48.0,-100.00,NW,315,5.0,-999.0,60,0.00,,,-99.99,,2013-01-09 23:53:00,
2013-01-09 16:00:00,60.0,49.0,-100.00,WNW,293,6.0,-999.0,67,0.00,,,-99.99,,2013-01-10 00:00:00,
2013-01-09 16:22:00,60.0,49.0,-100.00,WNW,293,6.0,-999.0,67,0.00,,,-99.99,,2013-01-10 00:22:00,
2013-01-09 16:33:00,60.0,49.0,-100.00,WNW,293,6.0,-999.0,67,0.00,,,-99.99,,2013-01-10 00:33:00,
2013-01-09 16:43:00,60.0,49.0,-100.00,WNW,293,6.0,-999.0,67,0.00,,,-99.99,,2013-01-10 00:43:00,
2013-01-09 16:53:00,60.0,49.0,-100.00,WNW,293,6.0,-999.0,67,0.00,,,-99.99,,2013-01-10 00:53:00,
2013-01-09 17:00:00,57.0,50.0,-100.00,West,278,6.0,-999.0,76,0.00,,,-99.99,,2013-01-10 01:00:00,
2013-01-09 17:22:00,57.0,50.0,-100.00,West,278,6.0,-999.0,76,0.00,,,-99.99,,2013-01-10 01:22:00,
2013-01-09 17:33:00,57.0,50.0,-100.00,West,278,6.0,-999.0,76,0.00,,,-99.99,,2013-01-10 01:33:00,
2013-01-09 17:43:00,57.0,50.0,-100.00,West,278,6.0,-999.0,76,0.00,,,-99.99,,2013-01-10 01:43:00,
2013-01-09 17:53:00,57.0,50.0,-100.00,West,278,6.0,-999.0,76,0.00,,,-99.99,,2013-01-10 01:53:00,
2013-01-09 18:00:00,55.0,49.0,-100.00,East,96,4.0,-999.0,80,0.00,,,-99.99,,2013-01-10 02:00:00,
2013-01-09 18:22:00,55.0,49.0,-100.00,East,96,4.0,-999.0,80,0.00,,,-99.99,,2013-01-10 02:22:00,
2013-01-09 18:33:00,55.0,49.0,-100.00,East,96,4.0,-999.0,80,0.00,,,-99.99,,2013-01-10 02:33:00,
2013-01-09 18:43:00,55.0,49.0,-100.00,East,96,4.0,-999.0,80,0.00,,,-99.99,,2013-01-10 02:43:00,
2013-01-09 18:52:00,55.0,49.0,-100.00,East,96,4.0,-999.0,80,0.00,,,-99.99,,2013-01-10 02:52:00,
2013-01-09 19:00:00,52.0,48.0,-100.00,SE,135,2.0,-999.0,86,0.00,,,-99.99,,2013-01-10 03:00:00,
2013-01-09 19:22:00,52.0,48.0,-100.00,SE,135,2.0,-999.0,86,0.00,,,-99.99,,2013-01-10 03:22:00,
2013-01-09 19:33:00,52.0,48.0,-100.00,SE,135,2.0,-999.0,86,0.00,,,-99.99,,2013-01-10 03:33:00,
2013-01-09 19:43:00,52.0,48.0,-100.00,SE,135,2.0,-999.0,86,0.00,,,-99.99,,2013-01-10 03:43:00,
2013-01-09 19:52:00,52.0,48.0,-100.00,SE,135,2.0,-999.0,86,0.00,,,-99.99,,2013-01-10 03:52:00,
2013-01-09 20:00:00,51.0,48.0,-100.00,West,260,3.0,-999.0,87,0.00,,,-99.99,,2013-01-10 04:00:00,
2013-01-09 20:22:00,51.0,48.0,-100.00,West,260,3.0,-999.0,87,0.00,,,-99.99,,2013-01-10 04:22:00,
2013-01-09 20:32:00,51.0,48.0,-100.00,West,260,3.0,-999.0,87,0.00,,,-99.99,,2013-01-10 04:32:00,
2013-01-09 20:43:00,51.0,48.0,-100.00,West,260,3.0,-999.0,87,0.00,,,-99.99,,2013-01-10 04:43:00,
2013-01-09 20:52:00,51.0,48.0,-100.00,West,260,3.0,-999.0,87,0.00,,,-99.99,,2013-01-10 04:52:00,
2013-01-09 21:00:00,51.0,47.0,-100.00,North,11,3.0,-999.0,86,0.00,,,-99.99,,2013-01-10 05:00:00,
2013-01-09 21:23:00,51.0,47.0,-100.00,North,11,3.0,-999.0,86,0.00,,,-99.99,,2013-01-10 05:23:00,
2013-01-09 21:33:00,51.0,47.0,-100.00,North,11,3.0,-999.0,86,0.00,,,-99.99,,2013-01-10 05:33:00,
2013-01-09 21:43:00,51.0,47.0,-100.00,North,11,3.0,-999.0,86,0.00,,,-99.99,,2013-01-10 05:43:00,
2013-01-09 21:52:00,51.0,47.0,-100.00,North,11,3.0,-999.0,86,0.00,,,-99.99,,2013-01-10 05:52:00,
2013-01-09 22:00:00,50.0,47.0,-100.00,SW,233,4.0,-999.0,89,0.00,,,-99.99,,2013-01-10 06:00:00,
2013-01-09 22:22:00,50.0,47.0,-100.00,SW,233,4.0,-999.0,89,0.00,,,-99.99,,2013-01-10 06:22:00,
2013-01-09 22:32:00,50.0,47.0,-100.00,SW,233,4.0,-999.0,89,0.00,,,-99.99,,2013-01-10 06:32:00,
2013-01-09 22:42:00,50.0,47.0,-100.00,SW,233,4.0,-999.0,89,0.00,,,-99.99,,2013-01-10 06:42:00,
2013-01-09 22:52:00,50.0,47.0,-100.00,SW,233,4.0,-999.0,89,0.00,,,-99.99,,2013-01-10 06:52:00,
2013-01-09 23:00:00,48.0,45.0,-100.00,WSW,255,5.0,-999.0,88,0.00,,,-99.99,,2013-01-10 07:00:00,
2013-01-09 23:22:00,48.0,45.0,-100.00,WSW,255,5.0,-999.0,88,0.00,,,-99.99,,2013-01-10 07:22:00,
2013-01-09 23:32:00,48.0,45.0,-100.00,WSW,255,5.0,-999.0,88,0.00,,,-99.99,,2013-01-10 07:32:00,
2013-01-09 23:42:00,48.0,45.0,-100.00,WSW,255,5.0,-999.0,88,0.00,,,-99.99,,2013-01-10 07:42:00,
2013-01-09 23:52:00,48.0,45.0,-100.00,WSW,255,5.0,-999.0,88,0.00,,,-99.99,,2013-01-10 07:52:00,